Year,Month,Day,Hour,Minute,Value (Times are PST for temperature in C)
2007,08,30,10,41,17.40
2007,08,30,10,42,17.40
2007,08,30,10,43,17.40
2007,08,30,10,44,17.40
2007,08,30,10,45,17.40
2007,08,30,10,46,17.40
2007,08,30,10,47,17.40
2007,08,30,10,48,17.40
2007,08,30,10,49,17.40
2007,08,30,10,50,17.40
2007,08,30,10,51,17.40
2007,08,30,10,52,17.40
2007,08,30,10,53,17.40
2007,08,30,10,54,17.40
2007,08,30,10,55,17.40
2007,08,30,10,56,17.40
2007,08,30,10,57,17.20
2007,08,30,10,58,17.20
2007,08,30,10,59,17.10
2007,08,30,11,00,17.10
2007,08,30,11,01,17.00
2007,08,30,11,02,16.90
2007,08,30,12,02,18.30
2007,08,30,12,03,18.20
2007,08,30,12,04,18.30
2007,08,30,12,05,18.30
2007,08,30,12,06,18.30
2007,08,30,12,07,18.40
2007,08,30,12,08,18.40
2007,08,30,12,09,18.40
2007,08,30,12,10,18.40
2007,08,30,12,11,18.40
2007,08,30,12,12,18.40
2007,08,30,12,13,18.40
2007,08,30,12,14,18.30
2007,08,30,12,15,18.30
2007,08,30,12,16,18.20
2007,08,30,12,17,18.20
2007,08,30,12,18,18.20
2007,08,30,12,19,18.20
2007,08,30,12,20,18.20
2007,08,30,12,21,18.20
2007,08,30,12,22,18.10
2007,08,30,12,23,18.00
2007,08,30,12,24,17.90
2007,08,30,12,25,17.70
2007,08,30,12,26,17.70
2007,08,30,12,27,17.60
2007,08,30,12,28,17.50
2007,08,30,12,29,17.40
2007,08,30,12,30,17.40
2007,08,30,12,31,17.40
2007,08,30,12,32,17.40
2007,08,30,12,33,17.50
2007,08,30,12,34,17.50
2007,08,30,12,35,17.60
2007,08,30,12,36,17.60
2007,08,30,12,37,17.60
2007,08,30,12,38,17.70
2007,08,30,12,39,17.70
2007,08,30,12,40,17.80
2007,08,30,12,41,17.90
2007,08,30,12,42,18.10
2007,08,30,12,43,18.20
2007,08,30,12,44,18.50
2007,08,30,12,45,18.60
2007,08,30,12,46,18.70
2007,08,30,12,47,18.80
2007,08,30,12,48,18.80
2007,08,30,12,49,18.80
2007,08,30,12,50,18.80
2007,08,30,12,51,18.90
2007,08,30,12,52,19.00
2007,08,30,12,53,19.10
2007,08,30,12,54,19.10
2007,08,30,12,55,19.20
2007,08,30,12,56,19.30
2007,08,30,12,57,19.40
2007,08,30,12,58,19.50
2007,08,30,12,59,19.60
2007,08,30,13,00,19.50
2007,08,30,13,01,19.40
2007,08,30,13,02,19.40
2007,08,30,13,03,19.30
2007,08,30,13,04,19.30
2007,08,30,13,05,19.20
2007,08,30,13,06,19.20
2007,08,30,13,07,19.10
2007,08,30,13,08,19.00
2007,08,30,13,09,18.90
2007,08,30,13,10,18.90
2007,08,30,13,11,19.00
2007,08,30,13,12,19.00
2007,08,30,13,13,19.10
2007,08,30,13,14,19.10
2007,08,30,13,15,19.10
2007,08,30,13,16,19.00
2007,08,30,13,17,18.90
2007,08,30,13,18,18.80
2007,08,30,13,19,18.80
2007,08,30,13,20,18.80
2007,08,30,13,21,18.80
2007,08,30,13,22,18.90
2007,08,30,13,23,19.00
2007,08,30,13,24,19.00
2007,08,30,13,25,19.10
2007,08,30,13,26,19.20
2007,08,30,13,27,19.20
2007,08,30,13,28,19.30
2007,08,30,13,29,19.20
2007,08,30,13,30,19.20
2007,08,30,13,31,19.10
2007,08,30,13,32,19.10
2007,08,30,13,33,19.00
2007,08,30,13,34,19.00
2007,08,30,13,35,19.00
2007,08,30,13,36,19.00
2007,08,30,13,37,19.00
2007,08,30,13,38,19.00
2007,08,30,13,39,19.00
2007,08,30,13,40,19.10
2007,08,30,13,41,19.10
2007,08,30,13,42,19.10
2007,08,30,13,43,19.20
2007,08,30,13,44,19.20
2007,08,30,13,45,19.30
2007,08,30,13,46,19.30
2007,08,30,13,47,19.30
2007,08,30,13,48,19.50
2007,08,30,13,49,19.50
2007,08,30,13,50,19.70
2007,08,30,13,51,19.80
2007,08,30,13,52,19.90
2007,08,30,13,53,19.90
2007,08,30,13,54,19.90
2007,08,30,13,55,19.90
2007,08,30,13,56,19.90
2007,08,30,13,57,19.90
2007,08,30,13,58,19.80
2007,08,30,13,59,19.90
2007,08,30,14,00,19.90
2007,08,30,14,01,19.90
2007,08,30,14,02,20.00
2007,08,30,14,03,20.00
2007,08,30,14,04,19.90
2007,08,30,14,05,19.70
2007,08,30,14,06,19.60
2007,08,30,14,07,19.60
2007,08,30,14,08,19.50
2007,08,30,14,09,19.40
2007,08,30,14,10,19.30
2007,08,30,14,11,19.30
2007,08,30,14,12,19.30
2007,08,30,14,13,19.30
2007,08,30,14,14,19.30
2007,08,30,14,15,19.30
2007,08,30,14,16,19.30
2007,08,30,14,17,19.30
2007,08,30,14,18,19.30
2007,08,30,14,19,19.40
2007,08,30,14,20,19.40
2007,08,30,14,21,19.50
2007,08,30,14,22,19.60
2007,08,30,14,23,19.60
2007,08,30,14,24,19.60
2007,08,30,14,25,19.50
2007,08,30,14,26,19.50
2007,08,30,14,27,19.50
2007,08,30,14,28,19.40
2007,08,30,14,29,19.40
2007,08,30,14,30,19.50
2007,08,30,14,31,19.50
2007,08,30,14,32,19.60
2007,08,30,14,33,19.60
2007,08,30,14,34,19.70
2007,08,30,14,35,19.70
2007,08,30,14,36,19.70
2007,08,30,14,37,19.80
2007,08,30,14,38,19.80
2007,08,30,14,39,19.90
2007,08,30,14,40,20.00
2007,08,30,14,41,20.10
2007,08,30,14,42,20.20
2007,08,30,14,43,20.30
2007,08,30,14,44,20.30
2007,08,30,14,45,20.50
2007,08,30,14,46,20.50
2007,08,30,14,47,20.50
2007,08,30,14,48,20.50
2007,08,30,14,49,20.50
2007,08,30,14,50,20.50
2007,08,30,14,51,20.40
2007,08,30,14,52,20.30
2007,08,30,14,53,20.10
2007,08,30,14,54,20.00
2007,08,30,14,55,20.00
2007,08,30,14,56,20.00
2007,08,30,14,57,20.10
2007,08,30,14,58,20.10
2007,08,30,14,59,20.10
2007,08,30,15,00,20.10
2007,08,30,15,01,20.20
2007,08,30,15,02,20.30
2007,08,30,15,03,20.40
2007,08,30,15,04,20.50
2007,08,30,15,05,20.50
2007,08,30,15,06,20.40
2007,08,30,15,07,20.30
2007,08,30,15,08,20.30
2007,08,30,15,09,20.20
2007,08,30,15,10,20.20
2007,08,30,15,11,20.20
2007,08,30,15,12,20.30
2007,08,30,15,13,20.30
2007,08,30,15,14,20.30
2007,08,30,15,15,20.40
2007,08,30,15,16,20.50
2007,08,30,15,17,20.50
2007,08,30,15,18,20.60
2007,08,30,15,19,20.70
2007,08,30,15,20,20.70
2007,08,30,15,21,20.80
2007,08,30,15,22,20.90
2007,08,30,15,23,20.90
2007,08,30,15,24,20.90
2007,08,30,15,25,20.90
2007,08,30,15,26,20.90
2007,08,30,15,27,20.90
2007,08,30,15,28,20.90
2007,08,30,15,29,20.90
2007,08,30,15,30,20.90
2007,08,30,15,31,20.90
2007,08,30,15,32,20.90
2007,08,30,15,33,20.80
2007,08,30,15,34,20.80
2007,08,30,15,35,20.80
2007,08,30,15,36,20.90
2007,08,30,15,37,20.80
2007,08,30,15,38,20.80
2007,08,30,15,39,20.70
2007,08,30,15,40,20.50
2007,08,30,15,41,20.50
2007,08,30,15,42,20.50
2007,08,30,15,43,20.50
2007,08,30,15,44,20.60
2007,08,30,15,45,20.60
2007,08,30,15,46,20.70
2007,08,30,15,47,20.80
2007,08,30,15,48,20.90
2007,08,30,15,49,21.00
2007,08,30,15,50,21.00
2007,08,30,15,51,21.10
2007,08,30,15,52,21.10
2007,08,30,15,53,21.20
2007,08,30,15,54,21.10
2007,08,30,15,55,21.10
2007,08,30,15,56,21.10
2007,08,30,15,57,21.10
2007,08,30,15,58,21.10
2007,08,30,15,59,21.20
2007,08,30,16,00,21.20
2007,08,30,16,01,21.10
2007,08,30,16,02,21.10
2007,08,30,16,03,21.10
2007,08,30,16,04,21.20
2007,08,30,16,05,21.20
2007,08,30,16,06,21.30
2007,08,30,16,07,21.30
2007,08,30,16,08,21.30
2007,08,30,16,09,21.40
2007,08,30,16,10,21.40
2007,08,30,16,11,21.40
2007,08,30,16,12,21.50
2007,08,30,16,13,21.50
2007,08,30,16,14,21.60
2007,08,30,16,15,21.60
2007,08,30,16,16,21.70
2007,08,30,16,17,21.70
2007,08,30,16,18,21.70
2007,08,30,16,19,21.70
2007,08,30,16,20,21.60
2007,08,30,16,21,21.50
2007,08,30,16,22,21.50
2007,08,30,16,23,21.40
2007,08,30,16,24,21.30
2007,08,30,16,25,21.30
2007,08,30,16,26,21.30
2007,08,30,16,27,21.30
2007,08,30,16,28,21.30
2007,08,30,16,29,21.30
2007,08,30,16,30,21.30
2007,08,30,16,31,21.30
2007,08,30,16,32,21.40
2007,08,30,16,33,21.40
2007,08,30,16,34,21.40
2007,08,30,16,35,21.40
2007,08,30,16,36,21.50
2007,08,30,16,37,21.50
2007,08,30,16,38,21.50
2007,08,30,16,39,21.50
2007,08,30,16,40,21.50
2007,08,30,16,41,21.60
2007,08,30,16,42,21.60
2007,08,30,16,43,21.60
2007,08,30,16,44,21.70
2007,08,30,16,45,21.70
2007,08,30,16,46,21.70
2007,08,30,16,47,21.70
2007,08,30,16,48,21.60
2007,08,30,16,49,21.60
2007,08,30,16,50,21.60
2007,08,30,16,51,21.60
2007,08,30,16,52,21.70
2007,08,30,16,53,21.70
2007,08,30,16,54,21.70
2007,08,30,16,55,21.70
2007,08,30,16,56,21.70
2007,08,30,16,57,21.70
2007,08,30,16,58,21.70
2007,08,30,16,59,21.70
2007,08,30,17,00,21.80
2007,08,30,17,01,21.70
2007,08,30,17,02,21.70
2007,08,30,17,03,21.60
2007,08,30,17,04,21.60
2007,08,30,17,05,21.70
2007,08,30,17,06,21.70
2007,08,30,17,07,21.70
2007,08,30,17,08,21.70
2007,08,30,17,09,21.80
2007,08,30,17,10,21.80
2007,08,30,17,11,21.80
2007,08,30,17,12,21.80
2007,08,30,17,13,21.80
2007,08,30,17,14,21.80
2007,08,30,17,15,21.80
2007,08,30,17,16,21.80
2007,08,30,17,17,21.80
2007,08,30,17,18,21.80
2007,08,30,17,19,21.80
2007,08,30,17,20,21.80
2007,08,30,17,21,21.80
2007,08,30,17,22,21.80
2007,08,30,17,23,21.70
2007,08,30,17,24,21.70
2007,08,30,17,25,21.80
2007,08,30,17,26,21.80
2007,08,30,17,27,21.80
2007,08,30,17,28,21.80
2007,08,30,17,29,21.90
2007,08,30,17,30,21.90
2007,08,30,17,31,21.90
2007,08,30,17,32,21.90
2007,08,30,17,33,21.90
2007,08,30,17,34,21.80
2007,08,30,17,35,21.80
2007,08,30,17,36,21.70
2007,08,30,17,37,21.70
2007,08,30,17,38,21.60
2007,08,30,17,39,21.70
2007,08,30,17,40,21.70
2007,08,30,17,41,21.80
2007,08,30,17,42,21.90
2007,08,30,17,43,22.00
2007,08,30,17,44,22.10
2007,08,30,17,45,22.20
2007,08,30,17,46,22.30
2007,08,30,17,47,22.40
2007,08,30,17,48,22.50
2007,08,30,17,49,22.60
2007,08,30,17,50,22.70
2007,08,30,17,51,22.70
2007,08,30,17,52,22.80
2007,08,30,17,53,22.80
2007,08,30,17,54,22.80
2007,08,30,17,55,22.80
2007,08,30,17,56,22.90
2007,08,30,17,57,23.10
2007,08,30,17,58,23.30
2007,08,30,17,59,23.40
2007,08,30,18,00,23.60
2007,08,30,18,01,23.70
2007,08,30,18,02,23.80
2007,08,30,18,03,23.90
2007,08,30,18,04,24.00
2007,08,30,18,05,24.00
2007,08,30,18,06,24.00
2007,08,30,18,07,23.90
2007,08,30,18,08,23.90
2007,08,30,18,09,23.80
2007,08,30,18,10,23.80
2007,08,30,18,11,23.80
2007,08,30,18,12,23.80
2007,08,30,18,13,23.80
2007,08,30,18,14,23.80
2007,08,30,18,15,23.80
2007,08,30,18,16,23.70
2007,08,30,18,17,23.70
2007,08,30,18,18,23.70
2007,08,30,18,19,23.60
2007,08,30,18,20,23.60
2007,08,30,18,21,23.60
2007,08,30,18,22,23.60
2007,08,30,18,23,23.60
2007,08,30,18,24,23.50
2007,08,30,18,25,23.50
2007,08,30,18,26,23.40
2007,08,30,18,27,23.40
2007,08,30,18,28,23.30
2007,08,30,18,29,23.30
2007,08,30,18,30,23.30
2007,08,30,18,31,23.20
2007,08,30,18,32,23.20
2007,08,30,18,33,23.20
2007,08,30,18,34,23.20
2007,08,30,18,35,23.20
2007,08,30,18,36,23.10
2007,08,30,18,37,23.10
2007,08,30,18,38,23.00
2007,08,30,18,39,23.00
2007,08,30,18,40,22.90
2007,08,30,18,41,22.90
2007,08,30,18,42,22.90
2007,08,30,18,43,22.80
2007,08,30,18,44,22.80
2007,08,30,18,45,22.80
2007,08,30,18,46,22.70
2007,08,30,18,47,22.70
2007,08,30,18,48,22.60
2007,08,30,18,49,22.50
2007,08,30,18,50,22.50
2007,08,30,18,51,22.40
2007,08,30,18,52,22.30
2007,08,30,18,53,22.30
2007,08,30,18,54,22.30
2007,08,30,18,55,22.20
2007,08,30,18,56,22.20
2007,08,30,18,57,22.20
2007,08,30,18,58,22.20
2007,08,30,18,59,22.20
2007,08,30,19,00,22.20
2007,08,30,19,01,22.20
2007,08,30,19,02,22.20
2007,08,30,19,03,22.20
2007,08,30,19,04,22.20
2007,08,30,19,05,22.10
2007,08,30,19,06,22.10
2007,08,30,19,07,22.10
2007,08,30,19,08,22.10
2007,08,30,19,09,22.10
2007,08,30,19,10,22.10
2007,08,30,19,11,22.10
2007,08,30,19,12,22.10
2007,08,30,19,13,22.10
2007,08,30,19,14,22.10
2007,08,30,19,15,22.10
2007,08,30,19,16,22.10
2007,08,30,19,17,22.10
2007,08,30,19,18,22.10
2007,08,30,19,19,22.10
2007,08,30,19,20,22.10
2007,08,30,19,21,22.10
2007,08,30,19,22,22.10
2007,08,30,19,23,22.00
2007,08,30,19,24,22.00
2007,08,30,19,25,22.00
2007,08,30,19,26,22.00
2007,08,30,19,27,22.00
2007,08,30,19,28,22.00
2007,08,30,19,29,22.00
2007,08,30,19,30,22.00
2007,08,30,19,31,22.00
2007,08,30,19,32,22.00
2007,08,30,19,33,22.00
2007,08,30,19,34,22.00
2007,08,30,19,35,22.00
2007,08,30,19,36,21.90
2007,08,30,19,37,21.90
2007,08,30,19,38,21.90
2007,08,30,19,39,21.90
2007,08,30,19,40,21.90
2007,08,30,19,41,21.90
2007,08,30,19,42,21.80
2007,08,30,19,43,21.80
2007,08,30,19,44,21.80
2007,08,30,19,45,21.80
2007,08,30,19,46,21.80
2007,08,30,19,47,21.70
2007,08,30,19,48,21.70
2007,08,30,19,49,21.70
2007,08,30,19,50,21.60
2007,08,30,19,51,21.60
2007,08,30,19,52,21.50
2007,08,30,19,53,21.50
2007,08,30,19,54,21.40
2007,08,30,19,55,21.40
2007,08,30,19,56,21.30
2007,08,30,19,57,21.30
2007,08,30,19,58,21.20
2007,08,30,19,59,21.20
2007,08,30,20,00,21.20
2007,08,30,20,01,21.20
2007,08,30,20,02,21.10
2007,08,30,20,03,21.10
2007,08,30,20,04,21.10
2007,08,30,20,05,21.10
2007,08,30,20,06,21.00
2007,08,30,20,07,21.00
2007,08,30,20,08,21.00
2007,08,30,20,09,20.90
2007,08,30,20,10,20.90
2007,08,30,20,11,20.90
2007,08,30,20,12,20.90
2007,08,30,20,13,20.90
2007,08,30,20,14,20.90
2007,08,30,20,15,20.90
2007,08,30,20,16,20.90
2007,08,30,20,17,20.80
2007,08,30,20,18,20.80
2007,08,30,20,19,20.80
2007,08,30,20,20,20.80
2007,08,30,20,21,20.80
2007,08,30,20,22,20.70
2007,08,30,20,23,20.70
2007,08,30,20,24,20.70
2007,08,30,20,25,20.70
2007,08,30,20,26,20.70
2007,08,30,20,27,20.60
2007,08,30,20,28,20.60
2007,08,30,20,29,20.60
2007,08,30,20,30,20.60
2007,08,30,20,31,20.60
2007,08,30,20,32,20.60
2007,08,30,20,33,20.50
2007,08,30,20,34,20.50
2007,08,30,20,35,20.50
2007,08,30,20,36,20.50
2007,08,30,20,37,20.40
2007,08,30,20,38,20.50
2007,08,30,20,39,20.40
2007,08,30,20,40,20.40
2007,08,30,20,41,20.40
2007,08,30,20,42,20.40
2007,08,30,20,43,20.40
2007,08,30,20,44,20.40
2007,08,30,20,45,20.40
2007,08,30,20,46,20.40
2007,08,30,20,47,20.40
2007,08,30,20,48,20.40
2007,08,30,20,49,20.40
2007,08,30,20,50,20.30
2007,08,30,20,51,20.30
2007,08,30,20,52,20.30
2007,08,30,20,53,20.30
2007,08,30,20,54,20.30
2007,08,30,20,55,20.30
2007,08,30,20,56,20.30
2007,08,30,20,57,20.30
2007,08,30,20,58,20.30
2007,08,30,20,59,20.30
2007,08,30,21,00,20.30
2007,08,30,21,01,20.30
2007,08,30,21,02,20.30
2007,08,30,21,03,20.30
2007,08,30,21,04,20.30
2007,08,30,21,05,20.30
2007,08,30,21,06,20.20
2007,08,30,21,07,20.20
2007,08,30,21,08,20.20
2007,08,30,21,09,20.20
2007,08,30,21,10,20.20
2007,08,30,21,11,20.20
2007,08,30,21,12,20.20
2007,08,30,21,13,20.20
2007,08,30,21,14,20.20
2007,08,30,21,15,20.20
2007,08,30,21,16,20.10
2007,08,30,21,17,20.10
2007,08,30,21,18,20.10
2007,08,30,21,19,20.10
2007,08,30,21,20,20.10
2007,08,30,21,21,20.10
2007,08,30,21,22,20.10
2007,08,30,21,23,20.10
2007,08,30,21,24,20.10
2007,08,30,21,25,20.10
2007,08,30,21,26,20.10
2007,08,30,21,27,20.10
2007,08,30,21,28,20.10
2007,08,30,21,29,20.20
2007,08,30,21,30,20.20
2007,08,30,21,31,20.20
2007,08,30,21,32,20.20
2007,08,30,21,33,20.20
2007,08,30,21,34,20.20
2007,08,30,21,35,20.20
2007,08,30,21,36,20.20
2007,08,30,21,37,20.10
2007,08,30,21,38,20.10
2007,08,30,21,39,20.10
2007,08,30,21,40,20.00
2007,08,30,21,41,20.00
2007,08,30,21,42,20.00
2007,08,30,21,43,19.90
2007,08,30,21,44,19.90
2007,08,30,21,45,19.90
2007,08,30,21,46,19.80
2007,08,30,21,47,19.80
2007,08,30,21,48,19.80
2007,08,30,21,49,19.70
2007,08,30,21,50,19.70
2007,08,30,21,51,19.60
2007,08,30,21,52,19.60
2007,08,30,21,53,19.60
2007,08,30,21,54,19.50
2007,08,30,21,55,19.50
2007,08,30,21,56,19.40
2007,08,30,21,57,19.40
2007,08,30,21,58,19.40
2007,08,30,21,59,19.40
2007,08,30,22,00,19.40
2007,08,30,22,01,19.30
2007,08,30,22,02,19.30
2007,08,30,22,03,19.30
2007,08,30,22,04,19.30
2007,08,30,22,05,19.30
2007,08,30,22,06,19.30
2007,08,30,22,07,19.20
2007,08,30,22,08,19.20
2007,08,30,22,09,19.20
2007,08,30,22,10,19.20
2007,08,30,22,11,19.20
2007,08,30,22,12,19.20
2007,08,30,22,13,19.20
2007,08,30,22,14,19.20
2007,08,30,22,15,19.20
2007,08,30,22,16,19.20
2007,08,30,22,17,19.10
2007,08,30,22,18,19.10
2007,08,30,22,19,19.10
2007,08,30,22,20,19.00
2007,08,30,22,21,19.00
2007,08,30,22,22,19.00
2007,08,30,22,23,19.00
2007,08,30,22,24,19.00
2007,08,30,22,25,18.90
2007,08,30,22,26,18.90
2007,08,30,22,27,18.90
2007,08,30,22,28,19.00
2007,08,30,22,29,19.00
2007,08,30,22,30,19.00
2007,08,30,22,31,19.00
2007,08,30,22,32,19.00
2007,08,30,22,33,19.00
2007,08,30,22,34,19.00
2007,08,30,22,35,19.00
2007,08,30,22,36,19.00
2007,08,30,22,37,19.00
2007,08,30,22,38,19.00
2007,08,30,22,39,19.00
2007,08,30,22,40,19.00
2007,08,30,22,41,19.00
2007,08,30,22,42,19.00
2007,08,30,22,43,19.00
2007,08,30,22,44,19.00
2007,08,30,22,45,19.00
2007,08,30,22,46,18.90
2007,08,30,22,47,18.90
2007,08,30,22,48,18.90
2007,08,30,22,49,18.90
2007,08,30,22,50,18.90
2007,08,30,22,51,18.90
2007,08,30,22,52,18.90
2007,08,30,22,53,18.80
2007,08,30,22,54,18.80
2007,08,30,22,55,18.80
2007,08,30,22,56,18.80
2007,08,30,22,57,18.80
2007,08,30,22,58,18.80
2007,08,30,22,59,18.80
2007,08,30,23,00,18.80
2007,08,30,23,01,18.70
2007,08,30,23,02,18.70
2007,08,30,23,03,18.70
2007,08,30,23,04,18.70
2007,08,30,23,05,18.70
2007,08,30,23,06,18.70
2007,08,30,23,07,18.70
2007,08,30,23,08,18.70
2007,08,30,23,09,18.70
2007,08,30,23,10,18.60
2007,08,30,23,11,18.60
2007,08,30,23,12,18.60
2007,08,30,23,13,18.50
2007,08,30,23,14,18.50
2007,08,30,23,15,18.50
2007,08,30,23,16,18.50
2007,08,30,23,17,18.50
2007,08,30,23,18,18.50
2007,08,30,23,19,18.50
2007,08,30,23,20,18.40
2007,08,30,23,21,18.40
2007,08,30,23,22,18.40
2007,08,30,23,23,18.40
2007,08,30,23,24,18.40
2007,08,30,23,25,18.40
2007,08,30,23,26,18.40
2007,08,30,23,27,18.30
2007,08,30,23,28,18.30
2007,08,30,23,29,18.30
2007,08,30,23,30,18.30
2007,08,30,23,31,18.30
2007,08,30,23,32,18.20
2007,08,30,23,33,18.20
2007,08,30,23,34,18.20
2007,08,30,23,35,18.20
2007,08,30,23,36,18.10
2007,08,30,23,37,18.10
2007,08,30,23,38,18.10
2007,08,30,23,39,18.10
2007,08,30,23,40,18.10
2007,08,30,23,41,18.10
2007,08,30,23,42,18.10
2007,08,30,23,43,18.10
2007,08,30,23,44,18.10
2007,08,30,23,45,18.00
2007,08,30,23,46,18.00
2007,08,30,23,47,18.00
2007,08,30,23,48,18.00
2007,08,30,23,49,18.00
2007,08,30,23,50,18.00
2007,08,30,23,51,18.00
2007,08,30,23,52,18.00
2007,08,30,23,53,17.90
2007,08,30,23,54,17.90
2007,08,30,23,55,17.90
2007,08,30,23,56,17.90
2007,08,30,23,57,17.90
2007,08,30,23,58,17.90
2007,08,30,23,59,17.80
